Date String (YYYY-MM-DD hh:mm:ss) UTC,Instrument flags,Ambient pressure (hPa),Sample flow (lpm),Bypass flow (lpm),Sample temperature (°C),Ambient temperature (°C),ASC tube jacket temperature (°C),LED temperature (°C),Box temperature (°C),Sample RH (%),Span deviation,Mass concentration (μg/m³),Mass concentration (μg/m³),Mass concentration (μg/m³)
DateTimeUTC,F1_M11,P_M11,Q1_M11,Q2_M11,T1_M11,T2_M11,T3_M11,T4_M11,T5_M11,U1_M11,ZSPAN_M11,X0_M11,X2_M11,X1_M11
2021-08-27 00:00:00,,0826.7,5.01,0.00,29.1,26.8,00.0,38.2,30.8,30.5,0000.4,0008.82,0004.24,0003.73
2021-08-27 00:01:00,,0826.7,4.99,0.00,29.1,27.3,00.0,38.2,30.9,30.7,0000.6,0008.75,0004.24,0003.71
2021-08-27 00:02:00,,0826.7,5.00,0.00,29.2,27.6,00.0,38.2,31.0,30.4,0001.1,0008.87,0004.25,0003.68
2021-08-27 00:03:00,,0826.7,5.01,0.00,29.2,27.9,00.0,38.2,31.1,30.8,0001.5,0008.96,0004.21,0003.64
2021-08-27 00:04:00,,0826.7,5.00,0.00,29.3,28.2,00.0,38.2,31.2,30.9,0001.1,0008.83,0004.16,0003.62
2021-08-27 00:05:00,,0826.7,4.99,0.00,29.3,28.4,00.0,38.3,31.2,30.0,0001.4,0008.71,0004.11,0003.60
2021-08-27 00:06:00,,0826.7,5.01,0.00,29.4,28.6,00.0,38.3,31.3,29.5,0002.5,0008.54,0004.07,0003.58
2021-08-27 00:07:00,,0826.7,5.01,0.00,29.4,28.2,00.0,38.3,31.2,28.6,0002.6,0008.50,0004.04,0003.55
2021-08-27 00:08:00,,0826.7,4.99,0.00,29.3,26.5,00.0,38.3,30.8,28.1,0002.3,0008.48,0004.00,0003.51
2021-08-27 00:09:00,,0826.7,5.01,0.00,29.2,25.8,00.0,38.3,30.5,28.0,0002.3,0008.60,0003.97,0003.49
2021-08-27 00:10:00,,0826.7,5.00,0.00,29.1,26.0,00.0,38.3,30.6,27.8,0002.2,0009.52,0003.92,0003.45
2021-08-27 00:11:00,,0826.7,5.01,0.00,29.1,26.5,00.0,38.2,30.7,28.2,0001.7,0009.11,0003.87,0003.40
2021-08-27 00:12:00,,0826.7,4.99,0.00,29.1,27.0,00.0,38.2,30.8,28.7,0001.0,0009.11,0003.81,0003.36
2021-08-27 00:13:00,,0826.7,5.00,0.00,29.1,27.4,00.0,38.2,30.9,29.3,0000.9,0008.79,0003.71,0003.31
2021-08-27 00:14:00,,0826.6,4.99,0.00,29.2,27.7,00.0,38.2,31.0,29.1,0000.6,0008.66,0003.68,0003.28
2021-08-27 00:15:00,,0826.7,5.01,0.00,29.2,28.0,00.0,38.2,31.1,28.3,0000.4,0008.57,0003.64,0003.26
2021-08-27 00:16:00,,0826.7,4.99,0.00,29.3,28.2,00.0,38.2,31.2,29.0,-000.2,0008.99,0003.61,0003.21
2021-08-27 00:17:00,,0826.7,5.00,0.00,29.3,28.4,00.0,38.3,31.3,29.0,-000.6,0009.34,0003.60,0003.20
2021-08-27 00:18:00,,0826.7,4.99,0.00,29.4,28.6,00.0,38.3,31.3,28.8,-000.1,0009.35,0003.60,0003.20
2021-08-27 00:19:00,,0826.6,5.01,0.00,29.4,28.5,00.0,38.3,31.3,27.9,0000.0,0009.52,0003.61,0003.20
2021-08-27 00:20:00,,0826.6,5.00,0.00,29.4,26.9,00.0,38.3,30.8,27.7,0000.0,0009.44,0003.59,0003.21
2021-08-27 00:21:00,,0826.6,4.98,0.00,29.2,25.8,00.0,38.3,30.5,28.3,0000.0,0008.32,0003.61,0003.22
2021-08-27 00:22:00,,0826.6,5.01,0.00,29.1,25.9,00.0,38.3,30.5,27.9,0000.0,0008.14,0003.61,0003.24
2021-08-27 00:23:00,,0826.6,5.00,0.00,29.1,26.4,00.0,38.2,30.6,28.2,0000.0,0008.13,0003.61,0003.26
2021-08-27 00:24:00,,0826.6,5.01,0.00,29.1,26.8,00.0,38.2,30.8,27.8,0000.0,0008.61,0003.66,0003.29
2021-08-27 00:25:00,,0826.6,4.99,0.00,29.1,27.3,00.0,38.2,30.9,28.2,0000.0,0008.59,0003.67,0003.31
2021-08-27 00:26:00,,0826.7,5.00,0.00,29.1,27.6,00.0,38.2,31.0,28.2,0000.0,0009.28,0003.70,0003.34
2021-08-27 00:27:00,,0826.6,5.00,0.00,29.2,27.9,00.0,38.2,31.1,27.9,0002.2,0009.16,0003.74,0003.37
2021-08-27 00:28:00,,0826.6,4.99,0.00,29.3,28.1,00.0,38.2,31.1,27.5,0002.1,0009.10,0003.77,0003.39
2021-08-27 00:29:00,,0826.6,5.00,0.00,29.3,28.3,00.0,38.3,31.2,27.7,0001.9,0009.13,0003.80,0003.41
2021-08-27 00:30:00,,0826.7,5.00,0.00,29.4,28.5,00.0,38.3,31.3,28.0,0002.1,0009.18,0003.84,0003.44
2021-08-27 00:31:00,,0826.7,5.00,0.00,29.4,28.6,00.0,38.3,31.3,27.9,0002.5,0009.60,0003.89,0003.47
2021-08-27 00:32:00,,0826.7,4.99,0.00,29.5,28.2,00.0,38.3,31.2,27.8,0002.3,0009.69,0003.92,0003.50
2021-08-27 00:33:00,,0826.7,5.00,0.00,29.3,26.5,00.0,38.3,30.8,27.6,0001.4,0010.06,0003.95,0003.52
2021-08-27 00:34:00,,0826.6,5.01,0.00,29.2,25.7,00.0,38.3,30.5,27.8,0000.5,0010.23,0004.00,0003.54
2021-08-27 00:35:00,,0826.7,5.00,0.00,29.1,26.0,00.0,38.3,30.6,28.0,0000.4,0010.28,0004.08,0003.58
2021-08-27 00:36:00,,0826.6,5.01,0.00,29.1,26.5,00.0,38.2,30.7,28.1,0000.8,0010.41,0004.13,0003.61
2021-08-27 00:37:00,,0826.6,4.99,0.00,29.1,26.9,00.0,38.2,30.8,28.1,0001.2,0010.09,0004.20,0003.64
2021-08-27 00:38:00,,0826.6,5.01,0.00,29.1,27.3,00.0,38.2,30.9,28.3,0001.3,0010.32,0004.25,0003.66
2021-08-27 00:39:00,,0826.6,4.99,0.00,29.2,27.7,00.0,38.2,31.0,28.2,0000.8,0010.36,0004.31,0003.68
2021-08-27 00:40:00,,0826.6,5.00,0.00,29.2,27.9,00.0,38.2,31.1,28.0,0000.7,0011.21,0004.40,0003.73
2021-08-27 00:41:00,,0826.6,5.00,0.00,29.3,28.1,00.0,38.2,31.2,27.8,0000.8,0011.25,0004.47,0003.79
2021-08-27 00:42:00,,0826.6,4.99,0.00,29.3,28.3,00.0,38.3,31.2,27.7,0000.6,0010.93,0004.52,0003.84
2021-08-27 00:43:00,,0826.7,5.00,0.00,29.4,28.5,00.0,38.3,31.3,27.8,0000.7,0011.01,0004.58,0003.91
2021-08-27 00:44:00,,0826.7,5.01,0.00,29.4,28.6,00.0,38.3,31.4,27.8,0001.0,0010.56,0004.63,0003.97
2021-08-27 00:45:00,,0826.6,4.99,0.00,29.5,28.5,00.0,38.3,31.4,27.9,0001.4,0010.51,0004.68,0004.02
2021-08-27 00:46:00,,0826.6,5.01,0.00,29.4,27.1,00.0,38.3,31.0,28.3,0001.2,0010.29,0004.70,0004.05
2021-08-27 00:47:00,,0826.6,4.99,0.00,29.3,25.8,00.0,38.3,30.6,28.6,0001.3,0010.32,0004.72,0004.09
2021-08-27 00:48:00,,0826.6,5.00,0.00,29.1,25.8,00.0,38.3,30.5,28.7,0001.6,0010.22,0004.74,0004.15
2021-08-27 00:49:00,,0826.6,4.99,0.00,29.1,26.2,00.0,38.3,30.6,29.3,0001.4,0009.82,0004.78,0004.21
2021-08-27 00:50:00,,0826.5,5.00,0.00,29.1,26.7,00.0,38.2,30.8,29.4,0002.0,0010.61,0004.84,0004.25
2021-08-27 00:51:00,,0826.6,5.01,0.00,29.1,27.1,00.0,38.2,30.9,29.3,0002.0,0010.07,0004.86,0004.28
2021-08-27 00:52:00,,0826.6,4.98,0.00,29.1,27.5,00.0,38.2,31.0,29.4,0002.1,0010.66,0004.89,0004.32
2021-08-27 00:53:00,,0826.6,5.02,0.00,29.2,27.8,00.0,38.2,31.1,29.1,0001.9,0011.91,0004.97,0004.36
2021-08-27 00:54:00,,0826.6,5.00,0.00,29.2,28.0,00.0,38.2,31.1,29.2,0001.9,0013.69,0005.11,0004.42
2021-08-27 00:55:00,,0826.7,4.99,0.00,29.3,28.2,00.0,38.2,31.2,29.2,0002.2,0014.00,0005.16,0004.45
2021-08-27 00:56:00,,0826.6,5.01,0.00,29.3,28.4,00.0,38.3,31.3,29.3,0002.3,0014.76,0005.21,0004.49
2021-08-27 00:57:00,,0826.7,5.01,0.00,29.4,28.5,00.0,38.3,31.3,29.1,0002.5,0015.54,0005.27,0004.54
2021-08-27 00:58:00,,0826.7,4.99,0.00,29.4,28.3,00.0,38.3,31.3,28.8,0002.4,0017.01,0005.36,0004.61
2021-08-27 00:59:00,,0826.6,5.00,0.00,29.3,26.6,00.0,38.3,30.8,29.0,0002.2,0017.93,0005.49,0004.67
